EDW29Y LSZH-EGPH

Flight info

Callsign EDW29Y
Flight time N/A
Altitude 38000
Route VEBIT T10 TORPA DCT REKLA DCT RLP DCT ROTSI DCT KOTUN DCT AMAXA DCT VESAN DCT RATUK DCT SOVAT L613 LEHOC DCT INPIP
Aircraft A20N/M-SDE2E3FGHIRWXY/LB1

Departure

Time 2026-05-04 17:58
Airport Zürich Airport (LSZH)

Arrival

Time N/A
Airport Edinburgh Airport (EGPH)
Time Latitude Longitude Altitude Speed Heading
2026-05-04 17:39 47.45171 8.55805 1416 ft 0 kts 187°
2026-05-04 17:50 47.45176 8.55805 1413 ft 3 kts 187°
2026-05-04 17:50 47.45194 8.55809 1414 ft 3 kts 187°
2026-05-04 17:50 47.45212 8.55812 1413 ft 3 kts 187°
2026-05-04 17:50 47.45230 8.55815 1415 ft 3 kts 187°
2026-05-04 17:51 47.45248 8.55817 1415 ft 3 kts 202°
2026-05-04 17:51 47.45259 8.55835 1413 ft 1 kts 275°
2026-05-04 17:51 47.45259 8.55836 1413 ft 0 kts 273°
2026-05-04 17:53 47.45260 8.55834 1410 ft 0 kts 279°
2026-05-04 17:53 47.45260 8.55832 1410 ft 0 kts 279°
2026-05-04 17:53 47.45264 8.55790 1410 ft 9 kts 279°
2026-05-04 17:53 47.45269 8.55692 1410 ft 10 kts 274°
2026-05-04 17:54 47.45281 8.55594 1414 ft 11 kts 299°
2026-05-04 17:54 47.45342 8.55525 1412 ft 11 kts 330°
2026-05-04 17:54 47.45418 8.55473 1411 ft 14 kts 335°
2026-05-04 17:54 47.45509 8.55412 1410 ft 15 kts 335°
2026-05-04 17:55 47.45612 8.55342 1407 ft 17 kts 336°
2026-05-04 17:55 47.45668 8.55424 1404 ft 12 kts 91°
2026-05-04 17:55 47.45658 8.55588 1406 ft 22 kts 95°
2026-05-04 17:55 47.45642 8.55812 1413 ft 22 kts 96°
2026-05-04 17:56 47.45628 8.56019 1416 ft 19 kts 97°
2026-05-04 17:56 47.45614 8.56210 1415 ft 19 kts 96°
2026-05-04 17:56 47.45601 8.56397 1419 ft 17 kts 96°
2026-05-04 17:56 47.45586 8.56599 1421 ft 23 kts 96°
2026-05-04 17:57 47.45571 8.56813 1423 ft 19 kts 96°
2026-05-04 17:57 47.45580 8.56995 1425 ft 16 kts 44°
2026-05-04 17:57 47.45653 8.57030 1428 ft 5 kts 344°
2026-05-04 17:57 47.45662 8.57002 1428 ft 4 kts 283°
2026-05-04 17:58 47.45671 8.56870 1425 ft 41 kts 275°
2026-05-04 17:58 47.45728 8.56067 1415 ft 116 kts 276°
2026-05-04 17:58 47.45838 8.54533 1487 ft 171 kts 276°
2026-05-04 17:58 47.45972 8.52743 2062 ft 185 kts 275°
2026-05-04 17:59 47.46113 8.50751 2620 ft 201 kts 277°
2026-05-04 17:59 47.46191 8.48723 3463 ft 194 kts 265°
2026-05-04 17:59 47.44434 8.45616 4620 ft 224 kts 214°
2026-05-04 18:00 47.43171 8.44081 5054 ft 244 kts 231°
2026-05-04 18:00 47.42280 8.41871 5733 ft 257 kts 240°
2026-05-04 18:00 47.41316 8.39582 6499 ft 266 kts 234°
2026-05-04 18:00 47.40674 8.38194 7051 ft 267 kts 233°
2026-05-04 18:01 47.39976 8.36713 7662 ft 269 kts 233°
2026-05-04 18:01 47.38940 8.34403 8572 ft 271 kts 237°
2026-05-04 18:02 47.37126 8.29461 10356 ft 278 kts 240°
2026-05-04 18:02 47.36198 8.26848 10775 ft 297 kts 240°
2026-05-04 18:02 47.35205 8.24054 11160 ft 316 kts 240°
2026-05-04 18:02 47.34169 8.21134 11765 ft 326 kts 241°
2026-05-04 18:03 47.33112 8.18159 12583 ft 329 kts 241°
2026-05-04 18:03 47.32043 8.15151 13391 ft 333 kts 241°
2026-05-04 18:03 47.30966 8.12120 14186 ft 335 kts 241°
2026-05-04 18:03 47.29879 8.09060 14921 ft 338 kts 241°
2026-05-04 18:04 47.28782 8.05978 15651 ft 342 kts 241°
2026-05-04 18:04 47.27777 8.02781 16339 ft 347 kts 249°
2026-05-04 18:04 47.27245 7.95686 17703 ft 360 kts 271°
2026-05-04 18:05 47.27487 7.91998 18381 ft 364 kts 274°
2026-05-04 18:05 47.27856 7.88233 18959 ft 369 kts 276°
2026-05-04 18:05 47.28264 7.84533 19542 ft 373 kts 276°
2026-05-04 18:05 47.28689 7.80702 20137 ft 376 kts 276°
2026-05-04 18:06 47.29485 7.73086 21286 ft 382 kts 275°
2026-05-04 18:06 47.29865 7.69200 21879 ft 385 kts 274°
2026-05-04 18:06 47.30258 7.65280 22451 ft 390 kts 277°
2026-05-04 18:07 47.30889 7.61367 23013 ft 395 kts 281°
2026-05-04 18:07 47.31644 7.57454 23566 ft 399 kts 282°
2026-05-04 18:07 47.32460 7.53527 24001 ft 403 kts 283°
2026-05-04 18:07 47.33315 7.49576 24426 ft 406 kts 284°
2026-05-04 18:08 47.34188 7.45596 24851 ft 410 kts 284°
2026-05-04 18:08 47.35072 7.41580 25229 ft 414 kts 284°
2026-05-04 18:08 47.35960 7.37525 25647 ft 417 kts 283°
2026-05-04 18:08 47.36849 7.33439 26034 ft 420 kts 283°
2026-05-04 18:09 47.38633 7.25175 26811 ft 426 kts 283°
2026-05-04 18:09 47.40410 7.16782 27532 ft 430 kts 281°
2026-05-04 18:10 47.41129 7.12483 27897 ft 432 kts 279°
2026-05-04 18:10 47.41807 7.08151 28262 ft 435 kts 278°
2026-05-04 18:10 47.42464 7.03772 28574 ft 438 kts 278°
2026-05-04 18:10 47.43110 6.99364 28910 ft 441 kts 277°
2026-05-04 18:11 47.43755 6.94916 29253 ft 444 kts 277°
2026-05-04 18:11 47.44400 6.90451 29578 ft 446 kts 277°
2026-05-04 18:11 47.45050 6.85952 29900 ft 449 kts 277°
2026-05-04 18:11 47.45702 6.81441 30262 ft 449 kts 277°
2026-05-04 18:12 47.46354 6.76939 30747 ft 446 kts 277°
2026-05-04 18:12 47.46999 6.72485 31263 ft 441 kts 277°
2026-05-04 18:12 47.47631 6.68065 31767 ft 437 kts 276°
2026-05-04 18:12 47.48072 6.63666 32274 ft 430 kts 272°
2026-05-04 18:13 47.48437 6.59290 32719 ft 427 kts 272°
2026-05-04 18:13 47.48768 6.54943 33135 ft 425 kts 271°
2026-05-04 18:13 47.49382 6.46306 33924 ft 420 kts 271°
2026-05-04 18:14 47.49676 6.42071 34239 ft 419 kts 271°
2026-05-04 18:14 47.49973 6.37797 34504 ft 418 kts 271°
2026-05-04 18:14 47.50268 6.33528 34741 ft 418 kts 271°
2026-05-04 18:15 47.50860 6.24989 35231 ft 417 kts 271°
2026-05-04 18:15 47.51451 6.16421 35598 ft 419 kts 271°
2026-05-04 18:15 47.51744 6.12139 35834 ft 418 kts 271°
2026-05-04 18:16 47.52036 6.07866 36066 ft 417 kts 271°
2026-05-04 18:16 47.52325 6.03597 36281 ft 417 kts 271°
2026-05-04 18:16 47.52613 5.99327 36482 ft 417 kts 271°
2026-05-04 18:17 47.53366 5.90822 36870 ft 420 kts 279°
2026-05-04 18:17 47.54230 5.86677 37051 ft 424 kts 288°
2026-05-04 18:17 47.57299 5.79123 37361 ft 436 kts 304°
2026-05-04 18:18 47.59269 5.75701 37539 ft 437 kts 307°
2026-05-04 18:18 47.61310 5.72368 37740 ft 436 kts 308°
2026-05-04 18:18 47.63378 5.69081 37934 ft 436 kts 308°
2026-05-04 18:19 47.69609 5.59189 38003 ft 437 kts 308°
2026-05-04 18:19 47.73722 5.52553 37997 ft 436 kts 308°
2026-05-04 18:20 47.77818 5.45893 37999 ft 437 kts 308°
2026-05-04 18:20 47.81912 5.39213 37989 ft 437 kts 308°
2026-05-04 18:21 47.86011 5.32512 37991 ft 438 kts 308°
2026-05-04 18:21 47.90106 5.25802 37994 ft 438 kts 308°
2026-05-04 18:22 47.94201 5.19076 37982 ft 438 kts 308°
2026-05-04 18:22 47.98290 5.12341 37983 ft 438 kts 308°
2026-05-04 18:23 48.02379 5.05591 37973 ft 439 kts 308°
2026-05-04 18:23 48.06477 4.98805 37969 ft 440 kts 308°
2026-05-04 18:24 48.10579 4.91998 37963 ft 440 kts 308°